| time (UTC) | temp F | wind direction | speed MPH | gust MPH | rain 1hr in | rain 24hr in | rain mn in | humidity % | barometer mb |
| 20260903190528 | 81 | 79 | 1.0 | 4.0 | 0.03 | 0.28 | 0.28 | 100 | 1013.5 |
| 20260903190043 | 81 | 84 | 1.0 | 4.0 | 0.07 | 0.28 | 0.28 | 100 | 1013.7 |
| 20260903185530 | 81 | 60 | 0.0 | 3.0 | 0.10 | 0.28 | 0.28 | 100 | 1013.7 |
| 20260903185027 | 81 | 57 | 1.0 | 3.0 | 0.13 | 0.28 | 0.28 | 100 | 1013.7 |
| 20260903184524 | 81 | 65 | 0.0 | 3.0 | 0.18 | 0.28 | 0.28 | 99 | 1013.7 |
| 20260903184041 | 81 | 65 | 0.0 | 3.0 | 0.22 | 0.27 | 0.27 | 98 | 1013.7 |
| 20260903183534 | 81 | 56 | 0.0 | 2.0 | 0.24 | 0.27 | 0.27 | 97 | 1013.7 |
| 20260903183030 | 81 | 99 | 0.0 | 2.0 | 0.25 | 0.27 | 0.27 | 96 | 1014.0 |
| 20260903182558 | 81 | 99 | 0.0 | 2.0 | 0.27 | 0.27 | 0.27 | 95 | 1014.0 |
| 20260903182054 | 81 | 99 | 0.0 | 3.0 | 0.27 | 0.27 | 0.27 | 94 | 1014.0 |
| 20260903181529 | 81 | 79 | 0.0 | 3.0 | 0.26 | 0.26 | 0.26 | 93 | 1014.3 |
| 20260903181039 | 82 | 62 | 1.0 | 3.0 | 0.26 | 0.26 | 0.26 | 92 | 1014.3 |
| 20260903180534 | 82 | 72 | 1.0 | 2.0 | 0.25 | 0.25 | 0.25 | 91 | 1014.3 |
| 20260903180030 | 82 | 45 | 0.0 | 1.0 | 0.22 | 0.22 | 0.22 | 90 | 1014.5 |
| 20260903175537 | 83 | 157 | 0.0 | 1.0 | 0.19 | 0.19 | 0.19 | 89 | 1014.5 |
| 20260903175032 | 83 | 131 | 0.0 | 3.0 | 0.15 | 0.15 | 0.15 | 87 | 1014.5 |
| 20260903174536 | 83 | 131 | 1.0 | 3.0 | 0.10 | 0.10 | 0.10 | 86 | 1014.4 |
| 20260903174032 | 84 | 160 | 1.0 | 3.0 | 0.06 | 0.06 | 0.06 | 85 | 1014.4 |
| 20260903173529 | 85 | 99 | 1.0 | 2.0 | 0.04 | 0.04 | 0.04 | 82 | 1014.4 |
| 20260903173024 | 85 | 77 | 1.0 | 3.0 | 0.02 | 0.02 | 0.02 | 79 | 1014.2 |
| 20260903172539 | 85 | 43 | 1.0 | 3.0 | 0.00 | 0.00 | 0.00 | 76 | 1014.2 |
| 20260903172027 | 86 | 90 | 1.0 | 5.0 | 0.00 | 0.00 | 0.00 | 74 | 1014.2 |
| 20260903171545 | 86 | 85 | 3.0 | 5.0 | 0.00 | 0.00 | 0.00 | 73 | 1014.3 |
| 20260903171031 | 86 | 63 | 1.0 | 4.0 | 0.00 | 0.00 | 0.00 | 74 | 1014.3 |
| 20260903170527 | 86 | 26 | 2.0 | 4.0 | 0.00 | 0.00 | 0.00 | 74 | 1014.3 |
| 20260903170026 | 86 | 31 | 2.0 | 6.0 | 0.00 | 0.00 | 0.00 | 75 | 1014.4 |
| 20260903165523 | 87 | 27 | 2.0 | 7.0 | 0.00 | 0.00 | 0.00 | 74 | 1014.4 |
| 20260903165031 | 86 | 39 | 3.0 | 7.0 | 0.00 | 0.00 | 0.00 | 75 | 1014.4 |
| 20260903164554 | 86 | 72 | 2.0 | 4.0 | 0.00 | 0.00 | 0.00 | 76 | 1014.8 |
| 20260903164028 | 86 | 62 | 1.0 | 5.0 | 0.00 | 0.00 | 0.00 | 77 | 1014.8 |
| 20260903163525 | 86 | 55 | 2.0 | 5.0 | 0.00 | 0.00 | 0.00 | 77 | 1014.8 |
| 20260903163022 | 85 | 131 | 1.0 | 4.0 | 0.00 | 0.00 | 0.00 | 76 | 1014.8 |
| 20260903162538 | 85 | 66 | 1.0 | 4.0 | 0.00 | 0.00 | 0.00 | 77 | 1014.8 |
| 20260903162054 | 85 | 75 | 1.0 | 4.0 | 0.00 | 0.00 | 0.00 | 77 | 1014.8 |
| 20260903161549 | 85 | 81 | 1.0 | 5.0 | 0.00 | 0.00 | 0.00 | 77 | 1014.9 |
| 20260903161038 | 85 | 128 | 1.0 | 5.0 | 0.00 | 0.00 | 0.00 | 78 | 1014.9 |
| 20260903160551 | 85 | 100 | 1.0 | 4.0 | 0.00 | 0.00 | 0.00 | 77 | 1014.9 |
| 20260903160029 | 85 | 103 | 1.0 | 4.0 | 0.00 | 0.00 | 0.00 | 78 | 1014.9 |
| 20260903155526 | 85 | 39 | 1.0 | 3.0 | 0.00 | 0.00 | 0.00 | 78 | 1014.9 |
| 20260903155034 | 85 | 39 | 1.0 | 4.0 | 0.00 | 0.00 | 0.00 | 77 | 1014.9 |
| 20260903154526 | 85 | 40 | 1.0 | 4.0 | 0.00 | 0.00 | 0.00 | 76 | 1015.0 |
| 20260903154023 | 86 | 67 | 1.0 | 4.0 | 0.00 | 0.00 | 0.00 | 76 | 1015.0 |
| 20260903153539 | 86 | 41 | 1.0 | 4.0 | 0.00 | 0.00 | 0.00 | 75 | 1015.0 |
| 20260903153035 | 86 | 62 | 1.0 | 3.0 | 0.00 | 0.00 | 0.00 | 74 | 1015.2 |
| 20260903152527 | 86 | 145 | 1.0 | 3.0 | 0.00 | 0.00 | 0.00 | 73 | 1015.2 |
| 20260903152024 | 86 | 166 | 2.0 | 5.0 | 0.00 | 0.00 | 0.00 | 71 | 1015.2 |
| 20260903151533 | 86 | 159 | 2.0 | 5.0 | 0.00 | 0.00 | 0.00 | 71 | 1015.1 |
| 20260903151028 | 86 | 166 | 2.0 | 3.0 | 0.00 | 0.00 | 0.00 | 70 | 1015.1 |
| 20260903150524 | 86 | 247 | 0.0 | 4.0 | 0.00 | 0.00 | 0.00 | 72 | 1015.1 |
| 20260903150041 | 86 | 238 | 2.0 | 4.0 | 0.00 | 0.00 | 0.00 | 71 | 1014.9 |
| 20260903145530 | 86 | 174 | 2.0 | 3.0 | 0.00 | 0.00 | 0.00 | 72 | 1014.9 |
| 20260903145026 | 86 | 207 | 2.0 | 5.0 | 0.00 | 0.00 | 0.00 | 71 | 1014.9 |
| 20260903144534 | 86 | 202 | 3.0 | 6.0 | 0.00 | 0.00 | 0.00 | 70 | 1014.9 |
| 20260903144047 | 85 | 145 | 1.0 | 6.0 | 0.00 | 0.00 | 0.00 | 72 | 1014.9 |
| 20260903143522 | 85 | 155 | 1.0 | 7.0 | 0.00 | 0.00 | 0.00 | 72 | 1014.9 |
| 20260903143057 | 85 | 195 | 2.0 | 7.0 | 0.00 | 0.00 | 0.00 | 71 | 1014.7 |
| 20260903142533 | 84 | 241 | 4.0 | 7.0 | 0.00 | 0.01 | 0.00 | 72 | 1014.7 |
| 20260903142029 | 84 | 210 | 2.0 | 5.0 | 0.00 | 0.01 | 0.00 | 73 | 1014.7 |
| 20260903141557 | 84 | 258 | 2.0 | 6.0 | 0.00 | 0.01 | 0.00 | 77 | 1014.7 |
| 20260903141032 | 83 | 177 | 2.0 | 6.0 | 0.00 | 0.01 | 0.00 | 75 | 1014.7 |
| 20260903140531 | 83 | 165 | 3.0 | 6.0 | 0.00 | 0.01 | 0.00 | 78 | 1014.7 |
| 20260903140027 | 83 | 158 | 2.0 | 6.0 | 0.00 | 0.01 | 0.00 | 79 | 1014.3 |
| 20260903135556 | 82 | 170 | 2.0 | 6.0 | 0.00 | 0.01 | 0.00 | 78 | 1014.3 |
| 20260903135032 | 82 | 236 | 1.0 | 6.0 | 0.00 | 0.01 | 0.00 | 81 | 1014.3 |
| 20260903134544 | 81 | 235 | 2.0 | 5.0 | 0.00 | 0.01 | 0.00 | 83 | 1014.4 |
| 20260903134038 | 81 | 243 | 0.0 | 4.0 | 0.00 | 0.01 | 0.00 | 84 | 1014.4 |
| 20260903133530 | 81 | 224 | 1.0 | 4.0 | 0.00 | 0.01 | 0.00 | 85 | 1014.4 |
| 20260903133033 | 80 | 207 | 1.0 | 3.0 | 0.00 | 0.01 | 0.00 | 86 | 1014.3 |
| 20260903132531 | 80 | 211 | 2.0 | 3.0 | 0.00 | 0.01 | 0.00 | 86 | 1014.3 |
| 20260903132046 | 80 | 223 | 1.0 | 3.0 | 0.00 | 0.01 | 0.00 | 87 | 1014.3 |
| 20260903131523 | 80 | 129 | 0.0 | 4.0 | 0.00 | 0.01 | 0.00 | 87 | 1014.3 |
| 20260903131031 | 80 | 184 | 1.0 | 4.0 | 0.00 | 0.01 | 0.00 | 87 | 1014.3 |
| 20260903130525 | 80 | 233 | 2.0 | 4.0 | 0.00 | 0.01 | 0.00 | 90 | 1014.3 |
| 20260903130022 | 79 | 240 | 2.0 | 5.0 | 0.00 | 0.01 | 0.00 | 90 | 1014.3 |
| 20260903125558 | 79 | 202 | 1.0 | 5.0 | 0.00 | 0.01 | 0.00 | 91 | 1014.3 |
| 20260903125032 | 79 | 223 | 1.0 | 5.0 | 0.00 | 0.01 | 0.00 | 93 | 1014.3 |
| 20260903124529 | 79 | 245 | 3.0 | 5.0 | 0.00 | 0.01 | 0.00 | 95 | 1014.3 |
| 20260903124037 | 79 | 228 | 2.0 | 5.0 | 0.00 | 0.01 | 0.00 | 96 | 1014.3 |
| 20260903123532 | 79 | 193 | 2.0 | 4.0 | 0.00 | 0.01 | 0.00 | 98 | 1014.3 |
| 20260903123027 | 78 | 176 | 1.0 | 3.0 | 0.00 | 0.01 | 0.00 | 100 | 1014.3 |
| 20260903122536 | 78 | 201 | 0.0 | 4.0 | 0.00 | 0.01 | 0.00 | 100 | 1014.3 |
| 20260903122032 | 78 | 183 | 1.0 | 4.0 | 0.00 | 0.01 | 0.00 | 100 | 1014.3 |
| 20260903121528 | 78 | 228 | 1.0 | 3.0 | 0.00 | 0.01 | 0.00 | 100 | 1014.3 |
| 20260903121025 | 77 | 251 | 0.0 | 3.0 | 0.00 | 0.01 | 0.00 | 100 | 1014.3 |
| 20260903120535 | 77 | 251 | 2.0 | 3.0 | 0.00 | 0.01 | 0.00 | 100 | 1014.3 |
| 20260903120031 | 77 | 234 | 0.0 | 0.0 | 0.00 | 0.01 | 0.00 | 100 | 1014.2 |
| 20260903115528 | 77 | 234 | 0.0 | 0.0 | 0.00 | 0.01 | 0.00 | 100 | 1014.2 |
| 20260903115032 | 77 | 234 | 0.0 | 0.0 | 0.00 | 0.01 | 0.00 | 100 | 1014.2 |
| 20260903114529 | 77 | 234 | 0.0 | 0.0 | 0.00 | 0.01 | 0.00 | 100 | 1013.8 |
| 20260903114032 | 77 | 234 | 0.0 | 0.0 | 0.00 | 0.01 | 0.00 | 100 | 1013.8 |
| 20260903113530 | 77 | 234 | 0.0 | 0.0 | 0.00 | 0.01 | 0.00 | 100 | 1013.8 |
| 20260903113025 | 77 | 234 | 0.0 | 0.0 | 0.00 | 0.01 | 0.00 | 100 | 1013.5 |
| 20260903112530 | 77 | 234 | 0.0 | 0.0 | 0.00 | 0.01 | 0.00 | 100 | 1013.5 |
| 20260903112026 | 77 | 234 | 0.0 | 0.0 | 0.00 | 0.01 | 0.00 | 100 | 1013.5 |
| 20260903111534 | 77 | 234 | 0.0 | 0.0 | 0.00 | 0.01 | 0.00 | 100 | 1013.3 |
| 20260903111031 | 77 | 234 | 0.0 | 0.0 | 0.00 | 0.01 | 0.00 | 100 | 1013.3 |
| 20260903110524 | 77 | 234 | 0.0 | 0.0 | 0.00 | 0.01 | 0.00 | 100 | 1013.3 |
| 20260903110033 | 77 | 234 | 0.0 | 0.0 | 0.00 | 0.01 | 0.00 | 100 | 1013.2 |
| 20260903105529 | 77 | 234 | 0.0 | 0.0 | 0.00 | 0.01 | 0.00 | 100 | 1013.2 |
| 20260903105024 | 77 | 234 | 0.0 | 0.0 | 0.00 | 0.01 | 0.00 | 100 | 1013.2 |
| 20260903104534 | 77 | 234 | 0.0 | 0.0 | 0.00 | 0.01 | 0.00 | 100 | 1012.8 |
| 20260903104029 | 77 | 234 | 0.0 | 1.0 | 0.00 | 0.01 | 0.00 | 100 | 1012.8 |
| 20260903103527 | 77 | 234 | 0.0 | 1.0 | 0.00 | 0.01 | 0.00 | 100 | 1012.8 |
| 20260903103038 | 77 | 234 | 0.0 | 0.0 | 0.00 | 0.01 | 0.00 | 100 | 1012.8 |
| 20260903102533 | 77 | 234 | 0.0 | 1.0 | 0.00 | 0.01 | 0.00 | 100 | 1012.8 |
| 20260903102030 | 77 | 234 | 0.0 | 2.0 | 0.00 | 0.01 | 0.00 | 100 | 1012.8 |
| 20260903101526 | 77 | 234 | 0.0 | 2.0 | 0.00 | 0.01 | 0.00 | 100 | 1012.8 |
| 20260903101103 | 77 | 234 | 0.0 | 3.0 | 0.00 | 0.01 | 0.00 | 100 | 1012.8 |
| 20260903100535 | 77 | 234 | 0.0 | 3.0 | 0.00 | 0.01 | 0.00 | 100 | 1012.8 |
| 20260903100031 | 77 | 234 | 1.0 | 2.0 | 0.00 | 0.01 | 0.00 | 100 | 1012.8 |
| 20260903095528 | 77 | 234 | 0.0 | 1.0 | 0.00 | 0.01 | 0.00 | 100 | 1012.8 |
| 20260903095038 | 78 | 234 | 0.0 | 1.0 | 0.00 | 0.01 | 0.00 | 100 | 1012.8 |
| 20260903094534 | 78 | 234 | 0.0 | 1.0 | 0.00 | 0.01 | 0.00 | 99 | 1012.8 |
| 20260903094031 | 78 | 234 | 0.0 | 1.0 | 0.00 | 0.01 | 0.00 | 99 | 1012.8 |
| 20260903093526 | 78 | 234 | 0.0 | 1.0 | 0.00 | 0.01 | 0.00 | 99 | 1012.8 |
| 20260903093036 | 78 | 234 | 0.0 | 1.0 | 0.00 | 0.01 | 0.00 | 99 | 1012.7 |
| 20260903092530 | 78 | 234 | 0.0 | 3.0 | 0.00 | 0.01 | 0.00 | 99 | 1012.7 |
| 20260903092036 | 78 | 234 | 0.0 | 3.0 | 0.00 | 0.01 | 0.00 | 99 | 1012.7 |
| 20260903091532 | 78 | 234 | 0.0 | 0.0 | 0.00 | 0.01 | 0.00 | 99 | 1012.7 |
| 20260903091028 | 78 | 234 | 0.0 | 0.0 | 0.00 | 0.01 | 0.00 | 99 | 1012.7 |
| 20260903090538 | 78 | 234 | 0.0 | 3.0 | 0.00 | 0.01 | 0.00 | 99 | 1012.7 |
| 20260903090034 | 78 | 233 | 0.0 | 3.0 | 0.00 | 0.01 | 0.00 | 99 | 1012.7 |
| 20260903085531 | 78 | 238 | 0.0 | 2.0 | 0.00 | 0.01 | 0.00 | 100 | 1012.7 |
| 20260903085027 | 78 | 238 | 1.0 | 3.0 | 0.00 | 0.01 | 0.00 | 100 | 1012.7 |
| 20260903084527 | 78 | 238 | 1.0 | 3.0 | 0.00 | 0.01 | 0.00 | 100 | 1012.7 |
| 20260903084051 | 78 | 193 | 1.0 | 3.0 | 0.00 | 0.01 | 0.00 | 100 | 1012.7 |
| 20260903083602 | 79 | 213 | 1.0 | 6.0 | 0.00 | 0.01 | 0.00 | 100 | 1012.7 |
| 20260903083054 | 79 | 215 | 1.0 | 6.0 | 0.00 | 0.01 | 0.00 | 100 | 1012.6 |
| 20260903082547 | 79 | 231 | 2.0 | 6.0 | 0.00 | 0.01 | 0.00 | 100 | 1012.6 |
| 20260903082044 | 79 | 238 | 1.0 | 6.0 | 0.00 | 0.01 | 0.00 | 100 | 1012.6 |
| 20260903081537 | 79 | 202 | 1.0 | 4.0 | 0.00 | 0.01 | 0.00 | 100 | 1012.5 |
| 20260903081032 | 79 | 245 | 2.0 | 4.0 | 0.00 | 0.01 | 0.00 | 100 | 1012.5 |
| 20260903080528 | 79 | 165 | 2.0 | 4.0 | 0.00 | 0.01 | 0.00 | 100 | 1012.5 |
| 20260903080037 | 79 | 139 | 0.0 | 3.0 | 0.00 | 0.01 | 0.00 | 100 | 1012.3 |
| 20260903075533 | 79 | 139 | 0.0 | 3.0 | 0.00 | 0.01 | 0.00 | 100 | 1012.3 |
| 20260903075028 | 79 | 183 | 0.0 | 3.0 | 0.00 | 0.01 | 0.00 | 100 | 1012.3 |
| 20260903074536 | 79 | 183 | 0.0 | 3.0 | 0.00 | 0.01 | 0.00 | 100 | 1012.5 |
| 20260903074033 | 79 | 191 | 0.0 | 0.0 | 0.00 | 0.01 | 0.00 | 100 | 1012.5 |
| 20260903073529 | 79 | 191 | 0.0 | 4.0 | 0.00 | 0.01 | 0.00 | 100 | 1012.5 |
| 20260903073026 | 79 | 191 | 0.0 | 4.0 | 0.00 | 0.01 | 0.00 | 100 | 1012.3 |
| 20260903072541 | 79 | 160 | 2.0 | 4.0 | 0.00 | 0.01 | 0.00 | 100 | 1012.3 |
| 20260903072033 | 79 | 122 | 1.0 | 3.0 | 0.00 | 0.01 | 0.00 | 100 | 1012.3 |
| 20260903071530 | 79 | 75 | 1.0 | 3.0 | 0.00 | 0.01 | 0.00 | 100 | 1012.3 |
| 20260903071031 | 79 | 81 | 0.0 | 0.0 | 0.00 | 0.01 | 0.00 | 100 | 1012.3 |
| 20260903070527 | 79 | 81 | 0.0 | 1.0 | 0.00 | 0.01 | 0.00 | 100 | 1012.3 |
| 20260903070024 | 79 | 81 | 0.0 | 2.0 | 0.00 | 0.01 | 0.00 | 100 | 1012.6 |
| 20260903065532 | 79 | 80 | 0.0 | 2.0 | 0.00 | 0.01 | 0.00 | 100 | 1012.6 |
| 20260903065030 | 79 | 48 | 0.0 | 1.0 | 0.00 | 0.01 | 0.00 | 100 | 1012.6 |
| 20260903064527 | 79 | 48 | 0.0 | 1.0 | 0.00 | 0.01 | 0.00 | 100 | 1012.7 |
| 20260903064023 | 79 | 48 | 0.0 | 1.0 | 0.00 | 0.01 | 0.00 | 100 | 1012.7 |
| 20260903063532 | 79 | 48 | 0.0 | 1.0 | 0.00 | 0.01 | 0.00 | 100 | 1012.7 |
| 20260903063030 | 79 | 48 | 0.0 | 1.0 | 0.00 | 0.01 | 0.00 | 100 | 1013.0 |
| 20260903062526 | 79 | 48 | 0.0 | 0.0 | 0.00 | 0.01 | 0.00 | 100 | 1013.0 |
| 20260903062022 | 79 | 48 | 0.0 | 0.0 | 0.00 | 0.01 | 0.00 | 100 | 1013.0 |
| 20260903061520 | 79 | 48 | 0.0 | 0.0 | 0.00 | 0.01 | 0.00 | 100 | 1013.2 |
| 20260903061032 | 79 | 48 | 0.0 | 0.0 | 0.00 | 0.01 | 0.00 | 100 | 1013.2 |
| 20260903060529 | 79 | 48 | 0.0 | 0.0 | 0.00 | 0.01 | 0.00 | 100 | 1013.2 |
| 20260903060026 | 79 | 48 | 0.0 | 2.0 | 0.00 | 0.01 | 0.00 | 100 | 1013.3 |
| 20260903055542 | 79 | 48 | 0.0 | 2.0 | 0.00 | 0.01 | 0.00 | 100 | 1013.3 |
| 20260903055031 | 79 | 40 | 0.0 | 3.0 | 0.00 | 0.01 | 0.00 | 100 | 1013.3 |
| 20260903054542 | 79 | 105 | 1.0 | 3.0 | 0.00 | 0.01 | 0.00 | 99 | 1013.7 |
| 20260903054030 | 79 | 42 | 0.0 | 1.0 | 0.00 | 0.01 | 0.00 | 99 | 1013.7 |
| 20260903053559 | 79 | 42 | 0.0 | 1.0 | 0.00 | 0.01 | 0.00 | 99 | 1013.7 |
| 20260903053032 | 79 | 42 | 0.0 | 3.0 | 0.00 | 0.01 | 0.00 | 98 | 1013.8 |
| 20260903034532 | 80 | 120 | 0.0 | 1.0 | 0.00 | 0.01 | 0.01 | 95 | 1014.7 |
| 20260903034028 | 80 | 120 | 0.0 | 1.0 | 0.00 | 0.01 | 0.01 | 95 | 1014.7 |
| 20260903033532 | 80 | 120 | 0.0 | 1.0 | 0.00 | 0.01 | 0.01 | 94 | 1014.7 |
| 20260903033028 | 80 | 120 | 0.0 | 2.0 | 0.00 | 0.01 | 0.01 | 94 | 1014.7 |
| 20260903032557 | 80 | 120 | 1.0 | 2.0 | 0.00 | 0.01 | 0.01 | 94 | 1014.7 |
| 20260903032032 | 80 | 120 | 0.0 | 2.0 | 0.00 | 0.01 | 0.01 | 93 | 1014.7 |
| 20260903031528 | 80 | 112 | 0.0 | 1.0 | 0.00 | 0.01 | 0.01 | 93 | 1014.7 |
| 20260903031036 | 80 | 112 | 0.0 | 1.0 | 0.00 | 0.01 | 0.01 | 92 | 1014.7 |
| 20260903030532 | 80 | 112 | 0.0 | 1.0 | 0.00 | 0.01 | 0.01 | 92 | 1014.7 |
| 20260903030028 | 80 | 71 | 0.0 | 0.0 | 0.00 | 0.01 | 0.01 | 92 | 1014.7 |
| 20260903025536 | 80 | 71 | 0.0 | 0.0 | 0.00 | 0.01 | 0.01 | 92 | 1014.7 |
| 20260903025032 | 80 | 71 | 0.0 | 0.0 | 0.00 | 0.01 | 0.01 | 91 | 1014.7 |
| 20260903024529 | 80 | 71 | 0.0 | 0.0 | 0.00 | 0.01 | 0.01 | 91 | 1014.4 |
| 20260903024056 | 81 | 71 | 0.0 | 1.0 | 0.00 | 0.01 | 0.01 | 91 | 1014.4 |
| 20260903023531 | 81 | 51 | 0.0 | 1.0 | 0.00 | 0.01 | 0.01 | 91 | 1014.4 |
| 20260903023027 | 81 | 51 | 0.0 | 1.0 | 0.00 | 0.01 | 0.01 | 91 | 1014.5 |
| 20260903022552 | 81 | 74 | 0.0 | 1.0 | 0.00 | 0.01 | 0.01 | 91 | 1014.5 |
| 20260903022027 | 81 | 137 | 0.0 | 1.0 | 0.00 | 0.01 | 0.01 | 90 | 1014.5 |
| 20260903021523 | 81 | 137 | 0.0 | 1.0 | 0.00 | 0.01 | 0.01 | 90 | 1014.5 |
| 20260903021031 | 81 | 137 | 0.0 | 1.0 | 0.00 | 0.01 | 0.01 | 90 | 1014.5 |
| 20260903020524 | 81 | 137 | 1.0 | 3.0 | 0.00 | 0.01 | 0.01 | 90 | 1014.5 |
| 20260903020033 | 81 | 83 | 0.0 | 3.0 | 0.00 | 0.01 | 0.01 | 90 | 1014.4 |
| 20260903015527 | 81 | 79 | 0.0 | 3.0 | 0.00 | 0.01 | 0.01 | 89 | 1014.4 |
| 20260903015044 | 81 | 78 | 1.0 | 3.0 | 0.00 | 0.01 | 0.01 | 89 | 1014.4 |
| 20260903014530 | 81 | 125 | 0.0 | 1.0 | 0.00 | 0.01 | 0.01 | 89 | 1014.3 |
| 20260903014026 | 81 | 129 | 0.0 | 5.0 | 0.00 | 0.01 | 0.01 | 89 | 1014.3 |
| 20260903013543 | 81 | 141 | 3.0 | 5.0 | 0.00 | 0.01 | 0.01 | 89 | 1014.3 |
| 20260903013037 | 81 | 146 | 1.0 | 3.0 | 0.00 | 0.01 | 0.01 | 90 | 1014.2 |
| 20260903012532 | 81 | 134 | 1.0 | 3.0 | 0.00 | 0.01 | 0.01 | 90 | 1014.2 |
| 20260903012029 | 81 | 78 | 1.0 | 5.0 | 0.00 | 0.01 | 0.01 | 90 | 1014.2 |
| 20260903011523 | 81 | 79 | 0.0 | 5.0 | 0.00 | 0.01 | 0.01 | 89 | 1013.9 |
| 20260903011038 | 81 | 25 | 0.0 | 4.0 | 0.00 | 0.01 | 0.01 | 89 | 1013.9 |
| 20260903010553 | 81 | 99 | 0.0 | 2.0 | 0.00 | 0.01 | 0.01 | 88 | 1013.9 |
| 20260903010048 | 81 | 181 | 0.0 | 4.0 | 0.00 | 0.01 | 0.01 | 88 | 1013.8 |
| 20260903005524 | 81 | 93 | 1.0 | 5.0 | 0.00 | 0.01 | 0.01 | 88 | 1013.8 |
| 20260903005037 | 81 | 71 | 1.0 | 5.0 | 0.00 | 0.01 | 0.01 | 87 | 1013.8 |
| 20260903004532 | 81 | 103 | 0.0 | 5.0 | 0.00 | 0.01 | 0.01 | 87 | 1013.7 |
| 20260903004030 | 81 | 101 | 0.0 | 5.0 | 0.00 | 0.01 | 0.01 | 87 | 1013.7 |
| 20260903003526 | 81 | 80 | 1.0 | 5.0 | 0.00 | 0.01 | 0.01 | 87 | 1013.7 |
| 20260903003030 | 81 | 35 | 1.0 | 3.0 | 0.00 | 0.01 | 0.01 | 86 | 1013.5 |
| 20260903002546 | 81 | 129 | 0.0 | 3.0 | 0.00 | 0.01 | 0.01 | 85 | 1013.5 |
| 20260903002041 | 82 | 110 | 1.0 | 3.0 | 0.00 | 0.01 | 0.01 | 84 | 1013.5 |
| 20260903001531 | 82 | 77 | 0.0 | 4.0 | 0.00 | 0.01 | 0.01 | 84 | 1013.4 |
| 20260903001047 | 82 | 108 | 0.0 | 4.0 | 0.00 | 0.01 | 0.01 | 83 | 1013.4 |
| 20260903000533 | 82 | 49 | 1.0 | 4.0 | 0.00 | 0.01 | 0.01 | 83 | 1013.4 |
| 20260903000027 | 82 | 87 | 0.0 | 4.0 | 0.00 | 0.01 | 0.01 | 83 | 1013.6 |
| 20260902235523 | 82 | 106 | 1.0 | 4.0 | 0.00 | 0.01 | 0.01 | 83 | 1013.6 |
| 20260902235036 | 82 | 97 | 0.0 | 1.0 | 0.00 | 0.01 | 0.01 | 82 | 1013.6 |
| 20260902234532 | 83 | 97 | 0.0 | 3.0 | 0.00 | 0.01 | 0.01 | 81 | 1013.3 |
| 20260902234029 | 83 | 97 | 1.0 | 3.0 | 0.00 | 0.01 | 0.01 | 81 | 1013.3 |
| 20260902233525 | 83 | 77 | 0.0 | 3.0 | 0.00 | 0.01 | 0.01 | 81 | 1013.3 |
| 20260902233022 | 83 | 76 | 0.0 | 3.0 | 0.00 | 0.01 | 0.01 | 81 | 1013.2 |
| 20260902232537 | 83 | 113 | 1.0 | 3.0 | 0.00 | 0.01 | 0.01 | 80 | 1013.2 |
| 20260902232032 | 83 | 44 | 0.0 | 2.0 | 0.00 | 0.01 | 0.01 | 80 | 1013.2 |
| 20260902231529 | 83 | 83 | 0.0 | 3.0 | 0.00 | 0.01 | 0.01 | 79 | 1013.0 |
| 20260902231034 | 84 | 85 | 0.0 | 5.0 | 0.00 | 0.01 | 0.01 | 79 | 1013.0 |
| 20260902230532 | 84 | 89 | 2.0 | 5.0 | 0.00 | 0.01 | 0.01 | 78 | 1013.0 |
| 20260902230028 | 84 | 153 | 2.0 | 5.0 | 0.00 | 0.01 | 0.01 | 78 | 1013.0 |
| 20260902225537 | 84 | 94 | 1.0 | 5.0 | 0.00 | 0.01 | 0.01 | 77 | 1013.0 |
| 20260902225032 | 84 | 109 | 1.0 | 4.0 | 0.00 | 0.01 | 0.01 | 77 | 1013.0 |
| 20260902224527 | 84 | 119 | 1.0 | 3.0 | 0.00 | 0.01 | 0.01 | 76 | 1013.1 |
| 20260902224036 | 84 | 66 | 1.0 | 5.0 | 0.00 | 0.01 | 0.01 | 75 | 1013.1 |
| 20260902223533 | 84 | 53 | 2.0 | 5.0 | 0.00 | 0.01 | 0.01 | 74 | 1013.1 |
| 20260902223028 | 85 | 63 | 1.0 | 6.0 | 0.00 | 0.01 | 0.01 | 74 | 1013.0 |
| 20260902222536 | 85 | 96 | 2.0 | 6.0 | 0.00 | 0.01 | 0.01 | 73 | 1013.0 |
| 20260902222024 | 85 | 82 | 1.0 | 2.0 | 0.00 | 0.01 | 0.01 | 73 | 1013.0 |
| 20260902221533 | 85 | 66 | 1.0 | 4.0 | 0.00 | 0.01 | 0.01 | 73 | 1013.2 |
| 20260902221029 | 85 | 98 | 1.0 | 4.0 | 0.00 | 0.01 | 0.01 | 73 | 1013.2 |
| 20260902220545 | 85 | 46 | 1.0 | 3.0 | 0.00 | 0.01 | 0.01 | 72 | 1013.2 |
| 20260902220032 | 86 | 60 | 1.0 | 3.0 | 0.00 | 0.01 | 0.01 | 72 | 1013.2 |
| 20260902215528 | 86 | 63 | 0.0 | 2.0 | 0.00 | 0.01 | 0.01 | 72 | 1013.2 |
| 20260902215031 | 86 | 63 | 1.0 | 3.0 | 0.00 | 0.01 | 0.01 | 72 | 1013.2 |
| 20260902214527 | 86 | 60 | 1.0 | 3.0 | 0.00 | 0.01 | 0.01 | 71 | 1013.2 |
| 20260902214035 | 87 | 94 | 1.0 | 3.0 | 0.00 | 0.01 | 0.01 | 70 | 1013.2 |
| 20260902213530 | 87 | 58 | 1.0 | 3.0 | 0.00 | 0.01 | 0.01 | 70 | 1013.2 |
| 20260902213027 | 87 | 77 | 1.0 | 3.0 | 0.00 | 0.01 | 0.01 | 69 | 1013.1 |
| 20260902212537 | 88 | 56 | 1.0 | 4.0 | 0.00 | 0.01 | 0.01 | 69 | 1013.1 |
| 20260902212034 | 88 | 47 | 1.0 | 4.0 | 0.00 | 0.01 | 0.01 | 69 | 1013.1 |
| 20260902211550 | 88 | 48 | 2.0 | 5.0 | 0.00 | 0.01 | 0.01 | 68 | 1013.1 |
| 20260902211025 | 88 | 78 | 2.0 | 5.0 | 0.00 | 0.01 | 0.01 | 68 | 1013.1 |
| 20260902210541 | 88 | 158 | 2.0 | 5.0 | 0.00 | 0.01 | 0.01 | 67 | 1013.1 |
| 20260902210035 | 88 | 49 | 2.0 | 4.0 | 0.00 | 0.01 | 0.01 | 68 | 1013.2 |
| 20260902205530 | 88 | 59 | 1.0 | 3.0 | 0.00 | 0.01 | 0.01 | 69 | 1013.2 |
| 20260902205025 | 88 | 50 | 1.0 | 3.0 | 0.00 | 0.01 | 0.01 | 70 | 1013.2 |
| 20260902204535 | 88 | 173 | 1.0 | 4.0 | 0.00 | 0.01 | 0.01 | 69 | 1013.3 |
| 20260902204032 | 88 | 153 | 2.0 | 4.0 | 0.00 | 0.01 | 0.01 | 70 | 1013.3 |
| 20260902203528 | 88 | 127 | 1.0 | 3.0 | 0.00 | 0.01 | 0.01 | 69 | 1013.3 |
| 20260902203026 | 88 | 88 | 1.0 | 3.0 | 0.00 | 0.01 | 0.01 | 70 | 1013.2 |
| 20260902202522 | 88 | 97 | 1.0 | 3.0 | 0.00 | 0.01 | 0.01 | 69 | 1013.2 |
| 20260902202054 | 88 | 152 | 0.0 | 4.0 | 0.00 | 0.01 | 0.01 | 67 | 1013.2 |
| 20260902201529 | 89 | 67 | 2.0 | 4.0 | 0.00 | 0.01 | 0.01 | 67 | 1013.4 |
| 20260902201026 | 89 | 50 | 1.0 | 4.0 | 0.00 | 0.01 | 0.01 | 67 | 1013.4 |
| 20260902200523 | 89 | 79 | 2.0 | 6.0 | 0.00 | 0.01 | 0.01 | 69 | 1013.4 |
| 20260902200040 | 89 | 34 | 2.0 | 6.0 | 0.00 | 0.01 | 0.01 | 69 | 1013.5 |
| 20260902195553 | 89 | 69 | 2.0 | 5.0 | 0.00 | 0.01 | 0.01 | 70 | 1013.5 |
| 20260902195028 | 88 | 83 | 1.0 | 5.0 | 0.00 | 0.01 | 0.01 | 72 | 1013.5 |
| 20260902194525 | 88 | 75 | 1.0 | 5.0 | 0.00 | 0.01 | 0.01 | 73 | 1013.8 |
| 20260902194040 | 87 | 102 | 1.0 | 4.0 | 0.00 | 0.01 | 0.01 | 74 | 1013.8 |
| 20260902193556 | 87 | 137 | 1.0 | 4.0 | 0.00 | 0.01 | 0.01 | 77 | 1013.8 |
| 20260902193028 | 86 | 56 | 2.0 | 3.0 | 0.00 | 0.01 | 0.01 | 79 | 1014.1 |
| 20260902192525 | 85 | 53 | 2.0 | 4.0 | 0.00 | 0.01 | 0.01 | 80 | 1014.1 |
| 20260902192038 | 85 | 44 | 1.0 | 4.0 | 0.00 | 0.01 | 0.01 | 82 | 1014.1 |
| 20260902191530 | 84 | 71 | 1.0 | 7.0 | 0.00 | 0.01 | 0.01 | 81 | 1014.3 |
| 20260902191026 | 84 | 73 | 2.0 | 7.0 | 0.00 | 0.01 | 0.01 | 84 | 1014.3 |